Вернуться в каталог

FREGAT DEB

LostUNKNOWN
NORAD 45879·DEBRIS·🇷🇺 Russia

Запущен Jul 18, 2011 с Baikonur Cosmodrome

Loading…

Ближайшие Пролёты (ближайшие 24 часа)

TLE

УстаревшееSource: Space-Track

Эпоха: Feb 7, 2026, 09:54 UTC

1 45879U 11037CY  26038.41302199  .00158123  00000-0  24740+0 0  9999
2 45879  50.4684  34.4845 1080565  66.9721 304.1315 12.14416118133773

Отслеживайте FREGAT DEB в реальном времени с AllMySat

Download on the App Store